owner,sensor,date,latitude,longitude,vertical_datum,sea_water_practical_salinity,qcFlag 
DISL,ioos:station:DISL:CATA:1,2013-02-01T00:00:00Z,30.3085,-88.1395,2.079,5.88,1111122 
DISL,ioos:station:DISL:CATA:1,2013-02-01T00:30:00Z,30.3085,-88.1395,2.061,6.03,1111122 
DISL,ioos:station:DISL:CATA:1,2013-02-01T01:00:00Z,30.3085,-88.1395,2.061,6.14,1111122 
DISL,ioos:station:DISL:CATA:1,2013-02-01T01:30:00Z,30.3085,-88.1395,2.061,6.31,1111122 
DISL,ioos:station:DISL:CATA:1,2013-02-01T02:00:00Z,30.3085,-88.1395,2.066,6.32,1111122 
DISL,ioos:station:DISL:CATA:1,2013-02-01T02:30:00Z,30.3085,-88.1395,2.064,6.29,1111122 
DISL,ioos:station:DISL:CATA:1,2013-02-01T03:00:00Z,30.3085,-88.1395,2.054,6.33,1111122 
DISL,ioos:station:DISL:CATA:1,2013-02-01T03:30:00Z,30.3085,-88.1395,2.042,6.27,1111122 
DISL,ioos:station:DISL:CATA:1,2013-02-01T04:00:00Z,30.3085,-88.1395,2.045,6.12,1111122 
DISL,ioos:station:DISL:CATA:1,2013-02-01T04:30:00Z,30.3085,-88.1395,2.046,5.96,1111122 
DISL,ioos:station:DISL:CATA:1,2013-02-01T05:00:00Z,30.3085,-88.1395,2.048,5.75,1111122 
DISL,ioos:station:DISL:CATA:1,2013-02-01T05:30:00Z,30.3085,-88.1395,2.059,5.46,1111122 
DISL,ioos:station:DISL:CATA:1,2013-02-01T06:00:00Z,30.3085,-88.1395,2.071,5.47,1111122 
DISL,ioos:station:DISL:CATA:1,2013-02-01T06:30:00Z,30.3085,-88.1395,2.06,5.83,1111122 
DISL,ioos:station:DISL:CATA:1,2013-02-01T07:00:00Z,30.3085,-88.1395,2.046,6.21,1111122 
DISL,ioos:station:DISL:CATA:1,2013-02-01T07:30:00Z,30.3085,-88.1395,2.047,6.4,1111122 
DISL,ioos:station:DISL:CATA:1,2013-02-01T08:00:00Z,30.3085,-88.1395,2.026,6.63,1111122 
DISL,ioos:station:DISL:CATA:1,2013-02-01T08:30:00Z,30.3085,-88.1395,2.018,6.97,1111122 
DISL,ioos:station:DISL:CATA:1,2013-02-01T09:00:00Z,30.3085,-88.1395,1.995,7.21,1111122 
DISL,ioos:station:DISL:CATA:1,2013-02-01T09:30:00Z,30.3085,-88.1395,1.99,7.14,1111122 
DISL,ioos:station:DISL:CATA:1,2013-02-01T10:00:00Z,30.3085,-88.1395,1.995,7.71,1111122 
DISL,ioos:station:DISL:CATA:1,2013-02-01T10:30:00Z,30.3085,-88.1395,1.966,7.9,1111122 
DISL,ioos:station:DISL:CATA:1,2013-02-01T11:00:00Z,30.3085,-88.1395,1.953,7.87,1111122 
DISL,ioos:station:DISL:CATA:1,2013-02-01T11:30:00Z,30.3085,-88.1395,1.945,7.58,1111122 
DISL,ioos:station:DISL:CATA:1,2013-02-01T12:00:00Z,30.3085,-88.1395,1.935,7.08,1111122 
DISL,ioos:station:DISL:CATA:1,2013-02-01T12:30:00Z,30.3085,-88.1395,1.935,5.95,1111122 
DISL,ioos:station:DISL:CATA:1,2013-02-01T13:00:00Z,30.3085,-88.1395,1.926,5.67,1111122 
DISL,ioos:station:DISL:CATA:1,2013-02-01T13:30:00Z,30.3085,-88.1395,1.931,5.53,1111122 
DISL,ioos:station:DISL:CATA:1,2013-02-01T14:00:00Z,30.3085,-88.1395,1.934,5.2,1111122 
DISL,ioos:station:DISL:CATA:1,2013-02-01T14:30:00Z,30.3085,-88.1395,1.931,4.86,1111122 
DISL,ioos:station:DISL:CATA:1,2013-02-01T15:00:00Z,30.3085,-88.1395,1.936,4.72,1111122 
DISL,ioos:station:DISL:CATA:1,2013-02-01T15:30:00Z,30.3085,-88.1395,1.939,3.9,1111122 
DISL,ioos:station:DISL:CATA:1,2013-02-01T16:00:00Z,30.3085,-88.1395,1.939,3.55,1111122 
DISL,ioos:station:DISL:CATA:1,2013-02-01T16:30:00Z,30.3085,-88.1395,1.93,2.69,1111122 
DISL,ioos:station:DISL:CATA:1,2013-02-01T17:00:00Z,30.3085,-88.1395,1.925,2.4,1111122 
DISL,ioos:station:DISL:CATA:1,2013-02-01T17:30:00Z,30.3085,-88.1395,1.934,2.37,1111122 
DISL,ioos:station:DISL:CATA:1,2013-02-01T18:00:00Z,30.3085,-88.1395,1.958,2.35,1111122 
DISL,ioos:station:DISL:CATA:1,2013-02-01T18:30:00Z,30.3085,-88.1395,1.978,2.38,1111122 
DISL,ioos:station:DISL:CATA:1,2013-02-01T19:00:00Z,30.3085,-88.1395,2.012,2.43,1111122 
DISL,ioos:station:DISL:CATA:1,2013-02-01T19:30:00Z,30.3085,-88.1395,2.035,2.56,1111122 
DISL,ioos:station:DISL:CATA:1,2013-02-01T20:00:00Z,30.3085,-88.1395,2.057,2.57,1111122 
DISL,ioos:station:DISL:CATA:1,2013-02-01T20:30:00Z,30.3085,-88.1395,2.065,2.35,1111122 
DISL,ioos:station:DISL:CATA:1,2013-02-01T21:00:00Z,30.3085,-88.1395,2.07,2.3,1111122 
DISL,ioos:station:DISL:CATA:1,2013-02-01T21:30:00Z,30.3085,-88.1395,2.056,2.55,1111122 
DISL,ioos:station:DISL:CATA:1,2013-02-01T22:00:00Z,30.3085,-88.1395,2.047,3.08,1111122 
DISL,ioos:station:DISL:CATA:1,2013-02-01T22:30:00Z,30.3085,-88.1395,2.051,4.4,1111122 
DISL,ioos:station:DISL:CATA:1,2013-02-01T23:00:00Z,30.3085,-88.1395,2.057,5.56,1111122 
DISL,ioos:station:DISL:CATA:1,2013-02-01T23:30:00Z,30.3085,-88.1395,2.052,5.22,1111122 
DISL,ioos:station:DISL:CATA:1,2013-02-02T00:00:00Z,30.3085,-88.1395,2.048,4.88,1111122 
DISL,ioos:station:DISL:CATA:1,2013-02-02T00:30:00Z,30.3085,-88.1395,2.024,5.31,1111122 
DISL,ioos:station:DISL:CATA:1,2013-02-02T01:00:00Z,30.3085,-88.1395,2.016,4.41,1111122 
DISL,ioos:station:DISL:CATA:1,2013-02-02T01:30:00Z,30.3085,-88.1395,2.002,2.96,1111122 
DISL,ioos:station:DISL:CATA:1,2013-02-02T02:00:00Z,30.3085,-88.1395,1.992,2.33,1111122 
DISL,ioos:station:DISL:CATA:1,2013-02-02T02:30:00Z,30.3085,-88.1395,1.983,2.34,1111122 
DISL,ioos:station:DISL:CATA:1,2013-02-02T03:00:00Z,30.3085,-88.1395,1.977,2.48,1111122 
DISL,ioos:station:DISL:CATA:1,2013-02-02T03:30:00Z,30.3085,-88.1395,1.966,2.49,1111122 
DISL,ioos:station:DISL:CATA:1,2013-02-02T04:00:00Z,30.3085,-88.1395,1.951,2.51,1111122 
DISL,ioos:station:DISL:CATA:1,2013-02-02T04:30:00Z,30.3085,-88.1395,1.94,2.57,1111122 
DISL,ioos:station:DISL:CATA:1,2013-02-02T05:00:00Z,30.3085,-88.1395,1.935,2.6,1111122 
DISL,ioos:station:DISL:CATA:1,2013-02-02T05:30:00Z,30.3085,-88.1395,1.936,2.62,1111122 
DISL,ioos:station:DISL:CATA:1,2013-02-02T06:00:00Z,30.3085,-88.1395,1.927,2.63,1111122 
DISL,ioos:station:DISL:CATA:1,2013-02-02T06:30:00Z,30.3085,-88.1395,1.916,2.63,1111122 
DISL,ioos:station:DISL:CATA:1,2013-02-02T07:00:00Z,30.3085,-88.1395,1.908,2.63,1111122 
DISL,ioos:station:DISL:CATA:1,2013-02-02T07:30:00Z,30.3085,-88.1395,1.901,2.66,1111122 
DISL,ioos:station:DISL:CATA:1,2013-02-02T08:00:00Z,30.3085,-88.1395,1.904,2.69,1111122 
DISL,ioos:station:DISL:CATA:1,2013-02-02T08:30:00Z,30.3085,-88.1395,1.921,2.7,1111122 
DISL,ioos:station:DISL:CATA:1,2013-02-02T09:00:00Z,30.3085,-88.1395,1.921,2.72,1111122 
DISL,ioos:station:DISL:CATA:1,2013-02-02T09:30:00Z,30.3085,-88.1395,1.942,2.73,1111122 
DISL,ioos:station:DISL:CATA:1,2013-02-02T10:00:00Z,30.3085,-88.1395,1.956,2.75,1111122 
DISL,ioos:station:DISL:CATA:1,2013-02-02T10:30:00Z,30.3085,-88.1395,1.956,2.75,1111122 
DISL,ioos:station:DISL:CATA:1,2013-02-02T11:00:00Z,30.3085,-88.1395,1.959,2.76,1111122 
DISL,ioos:station:DISL:CATA:1,2013-02-02T11:30:00Z,30.3085,-88.1395,1.961,2.76,1111122 
DISL,ioos:station:DISL:CATA:1,2013-02-02T12:00:00Z,30.3085,-88.1395,1.965,2.76,1111122 
DISL,ioos:station:DISL:CATA:1,2013-02-02T12:30:00Z,30.3085,-88.1395,1.964,2.77,1111122 
DISL,ioos:station:DISL:CATA:1,2013-02-02T13:00:00Z,30.3085,-88.1395,1.96,2.77,1111122 
DISL,ioos:station:DISL:CATA:1,2013-02-02T13:30:00Z,30.3085,-88.1395,1.967,2.77,1111122 
DISL,ioos:station:DISL:CATA:1,2013-02-02T14:00:00Z,30.3085,-88.1395,1.981,2.73,1111122 
DISL,ioos:station:DISL:CATA:1,2013-02-02T14:30:00Z,30.3085,-88.1395,2.0,2.78,1111122 
DISL,ioos:station:DISL:CATA:1,2013-02-02T15:00:00Z,30.3085,-88.1395,2.017,2.82,1111122 
DISL,ioos:station:DISL:CATA:1,2013-02-02T15:30:00Z,30.3085,-88.1395,2.036,2.86,1111122 
DISL,ioos:station:DISL:CATA:1,2013-02-02T16:00:00Z,30.3085,-88.1395,2.057,2.89,1111122 
DISL,ioos:station:DISL:CATA:1,2013-02-02T16:30:00Z,30.3085,-88.1395,2.087,2.9,1111122 
DISL,ioos:station:DISL:CATA:1,2013-02-02T17:00:00Z,30.3085,-88.1395,2.124,2.89,1111122 
DISL,ioos:station:DISL:CATA:1,2013-02-02T17:30:00Z,30.3085,-88.1395,2.165,2.87,1111122 
DISL,ioos:station:DISL:CATA:1,2013-02-02T18:00:00Z,30.3085,-88.1395,2.195,2.86,1111122 
DISL,ioos:station:DISL:CATA:1,2013-02-02T18:30:00Z,30.3085,-88.1395,2.223,2.82,1111122 
DISL,ioos:station:DISL:CATA:1,2013-02-02T19:00:00Z,30.3085,-88.1395,2.245,2.81,1111122 
DISL,ioos:station:DISL:CATA:1,2013-02-02T19:30:00Z,30.3085,-88.1395,2.267,2.81,1111122 
DISL,ioos:station:DISL:CATA:1,2013-02-02T20:00:00Z,30.3085,-88.1395,2.294,2.83,1111122 
DISL,ioos:station:DISL:CATA:1,2013-02-02T20:30:00Z,30.3085,-88.1395,2.312,2.8,1111122 
DISL,ioos:station:DISL:CATA:1,2013-02-02T21:00:00Z,30.3085,-88.1395,2.325,2.81,1111122 
DISL,ioos:station:DISL:CATA:1,2013-02-02T21:30:00Z,30.3085,-88.1395,2.339,2.83,1111122 
DISL,ioos:station:DISL:CATA:1,2013-02-02T22:00:00Z,30.3085,-88.1395,2.334,2.84,1111122 
DISL,ioos:station:DISL:CATA:1,2013-02-02T22:30:00Z,30.3085,-88.1395,2.341,2.86,1111122 
DISL,ioos:station:DISL:CATA:1,2013-02-02T23:00:00Z,30.3085,-88.1395,2.336,2.89,1111122 
DISL,ioos:station:DISL:CATA:1,2013-02-02T23:30:00Z,30.3085,-88.1395,2.32,2.9,1111122 
DISL,ioos:station:DISL:CATA:1,2013-02-03T00:00:00Z,30.3085,-88.1395,2.296,2.87,1111122 
DISL,ioos:station:DISL:CATA:1,2013-02-03T00:30:00Z,30.3085,-88.1395,2.276,2.83,1111122 
DISL,ioos:station:DISL:CATA:1,2013-02-03T01:00:00Z,30.3085,-88.1395,2.245,2.82,1111122 
DISL,ioos:station:DISL:CATA:1,2013-02-03T01:30:00Z,30.3085,-88.1395,2.216,2.82,1111122 
DISL,ioos:station:DISL:CATA:1,2013-02-03T02:00:00Z,30.3085,-88.1395,2.182,2.68,1111122 
DISL,ioos:station:DISL:CATA:1,2013-02-03T02:30:00Z,30.3085,-88.1395,2.146,2.56,1111122 
DISL,ioos:station:DISL:CATA:1,2013-02-03T03:00:00Z,30.3085,-88.1395,2.119,2.6,1111122 
DISL,ioos:station:DISL:CATA:1,2013-02-03T03:30:00Z,30.3085,-88.1395,2.086,2.6,1111122 
DISL,ioos:station:DISL:CATA:1,2013-02-03T04:00:00Z,30.3085,-88.1395,2.065,2.67,1111122 
DISL,ioos:station:DISL:CATA:1,2013-02-03T04:30:00Z,30.3085,-88.1395,2.043,2.72,1111122 
DISL,ioos:station:DISL:CATA:1,2013-02-03T05:00:00Z,30.3085,-88.1395,2.02,2.74,1111122 
DISL,ioos:station:DISL:CATA:1,2013-02-03T05:30:00Z,30.3085,-88.1395,2.005,2.74,1111122 
DISL,ioos:station:DISL:CATA:1,2013-02-03T06:00:00Z,30.3085,-88.1395,1.99,2.75,1111122 
DISL,ioos:station:DISL:CATA:1,2013-02-03T06:30:00Z,30.3085,-88.1395,1.972,2.77,1111122 
DISL,ioos:station:DISL:CATA:1,2013-02-03T07:00:00Z,30.3085,-88.1395,1.963,2.81,1111122 
DISL,ioos:station:DISL:CATA:1,2013-02-03T07:30:00Z,30.3085,-88.1395,1.962,2.85,1111122 
DISL,ioos:station:DISL:CATA:1,2013-02-03T08:00:00Z,30.3085,-88.1395,1.959,2.86,1111122 
DISL,ioos:station:DISL:CATA:1,2013-02-03T08:30:00Z,30.3085,-88.1395,1.971,2.91,1111122 
DISL,ioos:station:DISL:CATA:1,2013-02-03T09:00:00Z,30.3085,-88.1395,1.951,3.0,1111122 
DISL,ioos:station:DISL:CATA:1,2013-02-03T09:30:00Z,30.3085,-88.1395,1.919,3.21,1111122 
DISL,ioos:station:DISL:CATA:1,2013-02-03T10:00:00Z,30.3085,-88.1395,1.912,3.52,1111122 
DISL,ioos:station:DISL:CATA:1,2013-02-03T10:30:00Z,30.3085,-88.1395,1.923,3.75,1111122 
DISL,ioos:station:DISL:CATA:1,2013-02-03T11:00:00Z,30.3085,-88.1395,1.914,3.7,1111122 
DISL,ioos:station:DISL:CATA:1,2013-02-03T11:30:00Z,30.3085,-88.1395,1.893,3.59,1111122 
DISL,ioos:station:DISL:CATA:1,2013-02-03T12:00:00Z,30.3085,-88.1395,1.882,3.51,1111122 
DISL,ioos:station:DISL:CATA:1,2013-02-03T12:30:00Z,30.3085,-88.1395,1.89,3.47,1111122 
DISL,ioos:station:DISL:CATA:1,2013-02-03T13:00:00Z,30.3085,-88.1395,1.904,3.45,1111122 
DISL,ioos:station:DISL:CATA:1,2013-02-03T13:30:00Z,30.3085,-88.1395,1.934,3.4,1111122 
DISL,ioos:station:DISL:CATA:1,2013-02-03T14:00:00Z,30.3085,-88.1395,1.964,3.09,1111122 
DISL,ioos:station:DISL:CATA:1,2013-02-03T14:30:00Z,30.3085,-88.1395,1.997,2.99,1111122 
DISL,ioos:station:DISL:CATA:1,2013-02-03T15:00:00Z,30.3085,-88.1395,2.015,2.99,1111122 
DISL,ioos:station:DISL:CATA:1,2013-02-03T15:30:00Z,30.3085,-88.1395,2.05,3.13,1111122 
DISL,ioos:station:DISL:CATA:1,2013-02-03T16:00:00Z,30.3085,-88.1395,2.081,3.08,1111122 
DISL,ioos:station:DISL:CATA:1,2013-02-03T16:30:00Z,30.3085,-88.1395,2.102,3.13,1111122 
DISL,ioos:station:DISL:CATA:1,2013-02-03T17:00:00Z,30.3085,-88.1395,2.123,3.14,1111122 
DISL,ioos:station:DISL:CATA:1,2013-02-03T17:30:00Z,30.3085,-88.1395,2.145,3.17,1111122 
DISL,ioos:station:DISL:CATA:1,2013-02-03T18:00:00Z,30.3085,-88.1395,2.167,3.25,1111122 
DISL,ioos:station:DISL:CATA:1,2013-02-03T18:30:00Z,30.3085,-88.1395,2.196,3.21,1111122 
DISL,ioos:station:DISL:CATA:1,2013-02-03T19:00:00Z,30.3085,-88.1395,2.229,3.15,1111122 
DISL,ioos:station:DISL:CATA:1,2013-02-03T19:30:00Z,30.3085,-88.1395,2.272,2.88,1111122 
DISL,ioos:station:DISL:CATA:1,2013-02-03T20:00:00Z,30.3085,-88.1395,2.3,2.85,1111122 
DISL,ioos:station:DISL:CATA:1,2013-02-03T20:30:00Z,30.3085,-88.1395,2.318,3.09,1111122 
DISL,ioos:station:DISL:CATA:1,2013-02-03T21:00:00Z,30.3085,-88.1395,2.326,3.23,1111122 
DISL,ioos:station:DISL:CATA:1,2013-02-03T21:30:00Z,30.3085,-88.1395,2.339,3.24,1111122 
DISL,ioos:station:DISL:CATA:1,2013-02-03T22:00:00Z,30.3085,-88.1395,2.341,3.28,1111122 
DISL,ioos:station:DISL:CATA:1,2013-02-03T22:30:00Z,30.3085,-88.1395,2.337,3.29,1111122 
DISL,ioos:station:DISL:CATA:1,2013-02-03T23:00:00Z,30.3085,-88.1395,2.334,3.33,1111122 
DISL,ioos:station:DISL:CATA:1,2013-02-03T23:30:00Z,30.3085,-88.1395,2.327,3.4,1111122 
DISL,ioos:station:DISL:CATA:1,2013-02-04T00:00:00Z,30.3085,-88.1395,2.32,3.47,1111122 
DISL,ioos:station:DISL:CATA:1,2013-02-04T00:30:00Z,30.3085,-88.1395,2.311,3.48,1111122 
DISL,ioos:station:DISL:CATA:1,2013-02-04T01:00:00Z,30.3085,-88.1395,2.301,3.89,1111122 
DISL,ioos:station:DISL:CATA:1,2013-02-04T01:30:00Z,30.3085,-88.1395,2.27,3.93,1111122 
DISL,ioos:station:DISL:CATA:1,2013-02-04T02:00:00Z,30.3085,-88.1395,2.245,3.88,1111122 
DISL,ioos:station:DISL:CATA:1,2013-02-04T02:30:00Z,30.3085,-88.1395,2.212,3.56,1111122 
DISL,ioos:station:DISL:CATA:1,2013-02-04T03:00:00Z,30.3085,-88.1395,2.185,3.15,1111122 
DISL,ioos:station:DISL:CATA:1,2013-02-04T03:30:00Z,30.3085,-88.1395,2.146,3.18,1111122 
DISL,ioos:station:DISL:CATA:1,2013-02-04T04:00:00Z,30.3085,-88.1395,2.116,3.15,1111122 
DISL,ioos:station:DISL:CATA:1,2013-02-04T04:30:00Z,30.3085,-88.1395,2.075,3.31,1111122 
DISL,ioos:station:DISL:CATA:1,2013-02-04T05:00:00Z,30.3085,-88.1395,2.043,3.87,1111122 
DISL,ioos:station:DISL:CATA:1,2013-02-04T05:30:00Z,30.3085,-88.1395,2.013,3.99,1111122 
DISL,ioos:station:DISL:CATA:1,2013-02-04T06:00:00Z,30.3085,-88.1395,1.994,3.95,1111122 
DISL,ioos:station:DISL:CATA:1,2013-02-04T06:30:00Z,30.3085,-88.1395,1.966,3.81,1111122 
DISL,ioos:station:DISL:CATA:1,2013-02-04T07:00:00Z,30.3085,-88.1395,1.949,3.64,1111122 
DISL,ioos:station:DISL:CATA:1,2013-02-04T07:30:00Z,30.3085,-88.1395,1.924,3.26,1111122 
DISL,ioos:station:DISL:CATA:1,2013-02-04T08:00:00Z,30.3085,-88.1395,1.905,3.26,1111122 
DISL,ioos:station:DISL:CATA:1,2013-02-04T08:30:00Z,30.3085,-88.1395,1.891,3.16,1111122 
DISL,ioos:station:DISL:CATA:1,2013-02-04T09:00:00Z,30.3085,-88.1395,1.87,3.12,1111122 
DISL,ioos:station:DISL:CATA:1,2013-02-04T09:30:00Z,30.3085,-88.1395,1.861,3.11,1111122 
DISL,ioos:station:DISL:CATA:1,2013-02-04T10:00:00Z,30.3085,-88.1395,1.86,3.09,1111122 
DISL,ioos:station:DISL:CATA:1,2013-02-04T10:30:00Z,30.3085,-88.1395,1.856,3.06,1111122 
DISL,ioos:station:DISL:CATA:1,2013-02-04T11:00:00Z,30.3085,-88.1395,1.861,3.08,1111122 
DISL,ioos:station:DISL:CATA:1,2013-02-04T11:30:00Z,30.3085,-88.1395,1.879,3.1,1111122 
DISL,ioos:station:DISL:CATA:1,2013-02-04T12:00:00Z,30.3085,-88.1395,1.895,3.07,1111122 
DISL,ioos:station:DISL:CATA:1,2013-02-04T12:30:00Z,30.3085,-88.1395,1.93,3.03,1111122 
DISL,ioos:station:DISL:CATA:1,2013-02-04T13:00:00Z,30.3085,-88.1395,1.957,2.98,1111122 
DISL,ioos:station:DISL:CATA:1,2013-02-04T13:30:00Z,30.3085,-88.1395,1.994,2.91,1111122 
DISL,ioos:station:DISL:CATA:1,2013-02-04T14:00:00Z,30.3085,-88.1395,2.01,2.93,1111122 
DISL,ioos:station:DISL:CATA:1,2013-02-04T14:30:00Z,30.3085,-88.1395,2.03,2.96,1111122 
DISL,ioos:station:DISL:CATA:1,2013-02-04T15:00:00Z,30.3085,-88.1395,2.046,2.93,1111122 
DISL,ioos:station:DISL:CATA:1,2013-02-04T15:30:00Z,30.3085,-88.1395,2.076,2.89,1111122 
DISL,ioos:station:DISL:CATA:1,2013-02-04T16:00:00Z,30.3085,-88.1395,2.095,3.21,1111122 
DISL,ioos:station:DISL:CATA:1,2013-02-04T16:30:00Z,30.3085,-88.1395,2.095,3.29,1111122 
DISL,ioos:station:DISL:CATA:1,2013-02-04T17:00:00Z,30.3085,-88.1395,2.12,3.29,1111122 
DISL,ioos:station:DISL:CATA:1,2013-02-04T17:30:00Z,30.3085,-88.1395,2.148,3.21,1111122 
DISL,ioos:station:DISL:CATA:1,2013-02-04T18:00:00Z,30.3085,-88.1395,2.18,3.17,1111122 
DISL,ioos:station:DISL:CATA:1,2013-02-04T18:30:00Z,30.3085,-88.1395,2.212,3.17,1111122 
DISL,ioos:station:DISL:CATA:1,2013-02-04T19:00:00Z,30.3085,-88.1395,2.248,3.19,1111122 
DISL,ioos:station:DISL:CATA:1,2013-02-04T19:30:00Z,30.3085,-88.1395,2.273,3.23,1111122 
DISL,ioos:station:DISL:CATA:1,2013-02-04T20:00:00Z,30.3085,-88.1395,2.296,3.29,1111122 
DISL,ioos:station:DISL:CATA:1,2013-02-04T20:30:00Z,30.3085,-88.1395,2.318,3.39,1111122 
DISL,ioos:station:DISL:CATA:1,2013-02-04T21:00:00Z,30.3085,-88.1395,2.34,3.44,1111122 
DISL,ioos:station:DISL:CATA:1,2013-02-04T21:30:00Z,30.3085,-88.1395,2.364,3.45,1111122 
DISL,ioos:station:DISL:CATA:1,2013-02-04T22:00:00Z,30.3085,-88.1395,2.372,3.47,1111122 
DISL,ioos:station:DISL:CATA:1,2013-02-04T22:30:00Z,30.3085,-88.1395,2.376,3.52,1111122 
DISL,ioos:station:DISL:CATA:1,2013-02-04T23:00:00Z,30.3085,-88.1395,2.386,3.56,1111122 
DISL,ioos:station:DISL:CATA:1,2013-02-04T23:30:00Z,30.3085,-88.1395,2.389,3.85,1111122 
DISL,ioos:station:DISL:CATA:1,2013-02-05T00:00:00Z,30.3085,-88.1395,2.378,4.13,1111122 
DISL,ioos:station:DISL:CATA:1,2013-02-05T00:30:00Z,30.3085,-88.1395,2.379,4.14,1111122 
DISL,ioos:station:DISL:CATA:1,2013-02-05T01:00:00Z,30.3085,-88.1395,2.372,3.92,1111122 
DISL,ioos:station:DISL:CATA:1,2013-02-05T01:30:00Z,30.3085,-88.1395,2.35,3.53,1111122 
DISL,ioos:station:DISL:CATA:1,2013-02-05T02:00:00Z,30.3085,-88.1395,2.339,3.34,1111122 
DISL,ioos:station:DISL:CATA:1,2013-02-05T02:30:00Z,30.3085,-88.1395,2.309,3.12,1111122 
DISL,ioos:station:DISL:CATA:1,2013-02-05T03:00:00Z,30.3085,-88.1395,2.284,2.98,1111122 
DISL,ioos:station:DISL:CATA:1,2013-02-05T03:30:00Z,30.3085,-88.1395,2.251,2.95,1111122 
DISL,ioos:station:DISL:CATA:1,2013-02-05T04:00:00Z,30.3085,-88.1395,2.205,3.29,1111122 
DISL,ioos:station:DISL:CATA:1,2013-02-05T04:30:00Z,30.3085,-88.1395,2.17,3.19,1111122 
DISL,ioos:station:DISL:CATA:1,2013-02-05T05:00:00Z,30.3085,-88.1395,2.125,3.03,1111122 
DISL,ioos:station:DISL:CATA:1,2013-02-05T05:30:00Z,30.3085,-88.1395,2.081,2.98,1111122 
DISL,ioos:station:DISL:CATA:1,2013-02-05T06:00:00Z,30.3085,-88.1395,2.052,2.91,1111122 
DISL,ioos:station:DISL:CATA:1,2013-02-05T06:30:00Z,30.3085,-88.1395,2.029,2.84,1111122 
DISL,ioos:station:DISL:CATA:1,2013-02-05T07:00:00Z,30.3085,-88.1395,1.996,2.78,1111122 
DISL,ioos:station:DISL:CATA:1,2013-02-05T07:30:00Z,30.3085,-88.1395,1.977,2.74,1111122 
DISL,ioos:station:DISL:CATA:1,2013-02-05T08:00:00Z,30.3085,-88.1395,1.973,2.71,1111122 
DISL,ioos:station:DISL:CATA:1,2013-02-05T08:30:00Z,30.3085,-88.1395,1.938,2.72,1111122 
DISL,ioos:station:DISL:CATA:1,2013-02-05T09:00:00Z,30.3085,-88.1395,1.921,2.76,1111122 
DISL,ioos:station:DISL:CATA:1,2013-02-05T09:30:00Z,30.3085,-88.1395,1.916,2.78,1111122 
DISL,ioos:station:DISL:CATA:1,2013-02-05T10:00:00Z,30.3085,-88.1395,1.901,2.79,1111122 
DISL,ioos:station:DISL:CATA:1,2013-02-05T10:30:00Z,30.3085,-88.1395,1.885,2.79,1111122 
DISL,ioos:station:DISL:CATA:1,2013-02-05T11:00:00Z,30.3085,-88.1395,1.867,2.83,1111122 
DISL,ioos:station:DISL:CATA:1,2013-02-05T11:30:00Z,30.3085,-88.1395,1.854,2.84,1111122 
DISL,ioos:station:DISL:CATA:1,2013-02-05T12:00:00Z,30.3085,-88.1395,1.858,2.86,1111122 
DISL,ioos:station:DISL:CATA:1,2013-02-05T12:30:00Z,30.3085,-88.1395,1.905,2.89,1111122 
DISL,ioos:station:DISL:CATA:1,2013-02-05T13:00:00Z,30.3085,-88.1395,1.939,2.95,1111122 
DISL,ioos:station:DISL:CATA:1,2013-02-05T13:30:00Z,30.3085,-88.1395,1.98,3.01,1111122 
DISL,ioos:station:DISL:CATA:1,2013-02-05T14:00:00Z,30.3085,-88.1395,1.996,3.06,1111122 
DISL,ioos:station:DISL:CATA:1,2013-02-05T14:30:00Z,30.3085,-88.1395,2.038,3.09,1111122 
DISL,ioos:station:DISL:CATA:1,2013-02-05T15:00:00Z,30.3085,-88.1395,2.068,3.19,1111122 
DISL,ioos:station:DISL:CATA:1,2013-02-05T15:30:00Z,30.3085,-88.1395,2.101,3.16,1111122 
DISL,ioos:station:DISL:CATA:1,2013-02-05T16:00:00Z,30.3085,-88.1395,2.136,3.16,1111122 
DISL,ioos:station:DISL:CATA:1,2013-02-05T16:30:00Z,30.3085,-88.1395,2.156,3.15,1111122 
DISL,ioos:station:DISL:CATA:1,2013-02-05T17:00:00Z,30.3085,-88.1395,2.171,3.15,1111122 
DISL,ioos:station:DISL:CATA:1,2013-02-05T17:30:00Z,30.3085,-88.1395,2.204,3.15,1111122 
DISL,ioos:station:DISL:CATA:1,2013-02-05T18:00:00Z,30.3085,-88.1395,2.244,3.13,1111122 
DISL,ioos:station:DISL:CATA:1,2013-02-05T18:30:00Z,30.3085,-88.1395,2.294,3.11,1111122 
DISL,ioos:station:DISL:CATA:1,2013-02-05T19:00:00Z,30.3085,-88.1395,2.323,3.16,1111122 
DISL,ioos:station:DISL:CATA:1,2013-02-05T19:30:00Z,30.3085,-88.1395,2.359,3.16,1111122 
DISL,ioos:station:DISL:CATA:1,2013-02-05T20:00:00Z,30.3085,-88.1395,2.409,3.19,1111122 
DISL,ioos:station:DISL:CATA:1,2013-02-05T20:30:00Z,30.3085,-88.1395,2.434,3.18,1111122 
DISL,ioos:station:DISL:CATA:1,2013-02-05T21:00:00Z,30.3085,-88.1395,2.461,4.82,1111122 
DISL,ioos:station:DISL:CATA:1,2013-02-05T21:30:00Z,30.3085,-88.1395,2.473,6.02,1111122 
DISL,ioos:station:DISL:CATA:1,2013-02-05T22:00:00Z,30.3085,-88.1395,2.478,7.85,1111122 
DISL,ioos:station:DISL:CATA:1,2013-02-05T22:30:00Z,30.3085,-88.1395,2.482,13.36,1111122 
DISL,ioos:station:DISL:CATA:1,2013-02-05T23:00:00Z,30.3085,-88.1395,2.493,15.3,1111122 
DISL,ioos:station:DISL:CATA:1,2013-02-05T23:30:00Z,30.3085,-88.1395,2.503,17.41,1111122 
DISL,ioos:station:DISL:CATA:1,2013-02-06T00:00:00Z,30.3085,-88.1395,2.505,20.0,1111122 
DISL,ioos:station:DISL:CATA:1,2013-02-06T00:30:00Z,30.3085,-88.1395,2.5,21.34,1111122 
DISL,ioos:station:DISL:CATA:1,2013-02-06T01:00:00Z,30.3085,-88.1395,2.512,21.77,1111122 
DISL,ioos:station:DISL:CATA:1,2013-02-06T01:30:00Z,30.3085,-88.1395,2.499,22.13,1111122 
DISL,ioos:station:DISL:CATA:1,2013-02-06T02:00:00Z,30.3085,-88.1395,2.486,22.33,1111122 
DISL,ioos:station:DISL:CATA:1,2013-02-06T02:30:00Z,30.3085,-88.1395,2.466,22.45,1111122 
DISL,ioos:station:DISL:CATA:1,2013-02-06T03:00:00Z,30.3085,-88.1395,2.424,22.62,1111122 
DISL,ioos:station:DISL:CATA:1,2013-02-06T03:30:00Z,30.3085,-88.1395,2.406,22.75,1111122 
DISL,ioos:station:DISL:CATA:1,2013-02-06T04:00:00Z,30.3085,-88.1395,2.376,22.11,1111122 
DISL,ioos:station:DISL:CATA:1,2013-02-06T04:30:00Z,30.3085,-88.1395,2.336,22.11,1111122 
DISL,ioos:station:DISL:CATA:1,2013-02-06T05:00:00Z,30.3085,-88.1395,2.293,10.4,1111122 
DISL,ioos:station:DISL:CATA:1,2013-02-06T05:30:00Z,30.3085,-88.1395,2.234,5.24,1111122 
DISL,ioos:station:DISL:CATA:1,2013-02-06T06:00:00Z,30.3085,-88.1395,2.183,3.93,1111122 
DISL,ioos:station:DISL:CATA:1,2013-02-06T06:30:00Z,30.3085,-88.1395,2.148,3.89,1111122 
DISL,ioos:station:DISL:CATA:1,2013-02-06T07:00:00Z,30.3085,-88.1395,2.101,3.38,1111122 
DISL,ioos:station:DISL:CATA:1,2013-02-06T07:30:00Z,30.3085,-88.1395,2.055,3.06,1111122 
DISL,ioos:station:DISL:CATA:1,2013-02-06T08:00:00Z,30.3085,-88.1395,2.021,3.05,1111122 
DISL,ioos:station:DISL:CATA:1,2013-02-06T08:30:00Z,30.3085,-88.1395,1.991,3.05,1111122 
DISL,ioos:station:DISL:CATA:1,2013-02-06T09:00:00Z,30.3085,-88.1395,1.961,3.07,1111122 
DISL,ioos:station:DISL:CATA:1,2013-02-06T09:30:00Z,30.3085,-88.1395,1.943,3.07,1111122 
DISL,ioos:station:DISL:CATA:1,2013-02-06T10:00:00Z,30.3085,-88.1395,1.934,3.07,1111122 
DISL,ioos:station:DISL:CATA:1,2013-02-06T10:30:00Z,30.3085,-88.1395,1.926,3.06,1111122 
DISL,ioos:station:DISL:CATA:1,2013-02-06T11:00:00Z,30.3085,-88.1395,1.926,3.06,1111122 
DISL,ioos:station:DISL:CATA:1,2013-02-06T11:30:00Z,30.3085,-88.1395,1.93,3.05,1111122 
DISL,ioos:station:DISL:CATA:1,2013-02-06T12:00:00Z,30.3085,-88.1395,1.941,3.06,1111122 
DISL,ioos:station:DISL:CATA:1,2013-02-06T12:30:00Z,30.3085,-88.1395,1.956,3.04,1111122 
DISL,ioos:station:DISL:CATA:1,2013-02-06T13:00:00Z,30.3085,-88.1395,1.981,3.07,1111122 
DISL,ioos:station:DISL:CATA:1,2013-02-06T13:30:00Z,30.3085,-88.1395,2.009,3.04,1111122 
DISL,ioos:station:DISL:CATA:1,2013-02-06T14:00:00Z,30.3085,-88.1395,2.031,3.08,1111122 
DISL,ioos:station:DISL:CATA:1,2013-02-06T14:30:00Z,30.3085,-88.1395,2.048,3.08,1111122 
DISL,ioos:station:DISL:CATA:1,2013-02-06T15:00:00Z,30.3085,-88.1395,2.077,3.12,1111122 
DISL,ioos:station:DISL:CATA:1,2013-02-06T15:30:00Z,30.3085,-88.1395,2.107,3.08,1111122 